,,Stat5,,Stat1,,Stat2,,Stat3,,Stat4,,Wind1,,Wind1,
time,status,PA1M_AVG,status,PR1M_SUM,status,RH1M_AVG,status,SR1M_AVG,status,TA1M_AVG,status,W1dAve1m,status,W1sAve1m,
2001-07-10, 00:00:00,VALID,918.173,VALID,0,VALID,93.5456,VALID,-0.0679233,VALID,19.4083,VALID,121,VALID,0.670025,
2001-07-10, 00:01:00,VALID,918.173,VALID,0,VALID,93.8126,VALID,-0.0509425,VALID,19.3983,VALID,122,VALID,1.0154,
2001-07-10, 00:02:00,VALID,918.19,VALID,0,VALID,94.4955,VALID,-0.0169808,VALID,19.4046,VALID,115,VALID,1.61513,
2001-07-10, 00:03:00,VALID,918.196,VALID,0,VALID,94.5069,VALID,-0.0169808,VALID,19.4401,VALID,110,VALID,1.42882,
2001-07-10, 00:04:00,VALID,918.21,VALID,0,VALID,94.2768,VALID,-0.0339617,VALID,19.4726,VALID,114,VALID,1.04708,
2001-07-10, 00:05:00,VALID,918.237,VALID,0,VALID,93.6906,VALID,-0.0169808,VALID,19.4729,VALID,126,VALID,0.724029,
2001-07-10, 00:06:00,VALID,918.273,VALID,0,VALID,93.8724,VALID,-0.0679233,VALID,19.4535,VALID,127,VALID,0.813672,
2001-07-10, 00:07:00,VALID,918.294,VALID,0,VALID,93.8075,VALID,-0.0169808,VALID,19.4341,VALID,120,VALID,0.762952,
2001-07-10, 00:08:00,VALID,918.301,VALID,0,VALID,94.2806,VALID,-0.0679233,VALID,19.4182,VALID,123,VALID,1.13379,
2001-07-10, 00:09:00,VALID,918.311,VALID,0,VALID,94.3785,VALID,-0.0509425,VALID,19.4242,VALID,122,VALID,1.2707,
2001-07-10, 00:10:00,VALID,918.31,VALID,0,VALID,94.4446,VALID,-0.0509425,VALID,19.4013,VALID,120,VALID,1.39343,
2001-07-10, 00:11:00,VALID,918.289,VALID,0,VALID,94.4967,VALID,-0.0679233,VALID,19.3983,VALID,118,VALID,1.28002,
2001-07-10, 00:12:00,VALID,918.288,VALID,0,VALID,94.4662,VALID,-0.0679233,VALID,19.4018,VALID,120,VALID,1.25508,
2001-07-10, 00:13:00,VALID,918.277,VALID,0,VALID,94.5349,VALID,-0.0679233,VALID,19.4185,VALID,124,VALID,1.32051,
2001-07-10, 00:14:00,VALID,918.263,VALID,0,VALID,94.465,VALID,-0.0339617,VALID,19.418,VALID,129,VALID,0.963341,
2001-07-10, 00:15:00,VALID,918.26,VALID,0,VALID,94.4586,VALID,-0.0509425,VALID,19.4244,VALID,132,VALID,0.883429,
2001-07-10, 00:16:00,VALID,918.263,VALID,0,VALID,94.4777,VALID,-0.0339617,VALID,19.4401,VALID,111,VALID,1.0668,
2001-07-10, 00:17:00,VALID,918.264,VALID,0,VALID,94.0034,VALID,-0.0339617,VALID,19.4731,VALID,92,VALID,1.04434,
2001-07-10, 00:18:00,VALID,918.255,VALID,0,VALID,93.5316,VALID,-0.0339617,VALID,19.4694,VALID,92,VALID,0.742989,
2001-07-10, 00:19:00,VALID,918.244,VALID,0,VALID,93.7936,VALID,-0.0849042,VALID,19.4791,VALID,109,VALID,1.1141,
2001-07-10, 00:20:00,VALID,918.23,VALID,0,VALID,93.4273,VALID,-0.0339617,VALID,19.5243,VALID,114,VALID,1.06445,
2001-07-10, 00:21:00,VALID,918.212,VALID,0,VALID,92.9187,VALID,-0.0509425,VALID,19.5536,VALID,117,VALID,0.877734,
2001-07-10, 00:22:00,VALID,918.214,VALID,0,VALID,92.8195,VALID,-0.0679233,VALID,19.5571,VALID,120,VALID,1.24519,
2001-07-10, 00:23:00,VALID,918.208,VALID,0,VALID,92.7254,VALID,-0.0509425,VALID,19.5636,VALID,109,VALID,1.29934,
2001-07-10, 00:24:00,VALID,918.195,VALID,0,VALID,92.5003,VALID,-0.0679233,VALID,19.5735,VALID,100,VALID,1.11387,
2001-07-10, 00:25:00,VALID,918.178,VALID,0,VALID,92.0896,VALID,-0.0509425,VALID,19.5243,VALID,99,VALID,0.995508,
2001-07-10, 00:26:00,VALID,918.176,VALID,0,VALID,92.5703,VALID,-0.0679233,VALID,19.4724,VALID,100,VALID,1.03285,
2001-07-10, 00:27:00,VALID,918.187,VALID,0,VALID,92.5423,VALID,-0.0509425,VALID,19.4438,VALID,102,VALID,0.879523,
2001-07-10, 00:28:00,VALID,918.219,VALID,0,VALID,92.6084,VALID,-0.0509425,VALID,19.4339,VALID,97,VALID,1.0209,
2001-07-10, 00:29:00,VALID,918.231,VALID,0,VALID,92.2498,VALID,-0.0339617,VALID,19.4304,VALID,93,VALID,1.11367,
2001-07-10, 00:30:00,VALID,918.243,VALID,0,VALID,92.1557,VALID,-0.0849042,VALID,19.4309,VALID,103,VALID,0.936298,
2001-07-10, 00:31:00,VALID,918.25,VALID,0,VALID,92.1583,VALID,-0.0339617,VALID,19.4145,VALID,88,VALID,0.871711,
2001-07-10, 00:32:00,VALID,918.251,VALID,0,VALID,92.0171,VALID,-0.0339617,VALID,19.3951,VALID,92,VALID,1.16582,
2001-07-10, 00:33:00,VALID,918.253,VALID,0,VALID,91.5644,VALID,-0.0169808,VALID,19.3531,VALID,78,VALID,0.979492,
2001-07-10, 00:34:00,VALID,918.237,VALID,0,VALID,91.8099,VALID,-0.0509425,VALID,19.2657,VALID,69,VALID,1.10136,
2001-07-10, 00:35:00,VALID,918.216,VALID,0,VALID,92.3261,VALID,-0.0339617,VALID,19.2011,VALID,77,VALID,1.103,
2001-07-10, 00:36:00,VALID,918.205,VALID,0,VALID,92.5448,VALID,-0.0169808,VALID,19.1529,VALID,76,VALID,1.0418,
2001-07-10, 00:37:00,VALID,918.2,VALID,0,VALID,92.761,VALID,-0.0509425,VALID,19.1337,VALID,76,VALID,0.874219,
2001-07-10, 00:38:00,VALID,918.193,VALID,0,VALID,92.9263,VALID,-0.0339617,VALID,19.1042,VALID,87,VALID,0.90645,
2001-07-10, 00:39:00,VALID,918.19,VALID,0,VALID,92.9314,VALID,-0.0509425,VALID,19.0853,VALID,96,VALID,1.05428,
2001-07-10, 00:40:00,VALID,918.19,VALID,0,VALID,92.9301,VALID,-0.0679233,VALID,19.0791,VALID,96,VALID,1.23105,
2001-07-10, 00:41:00,VALID,918.173,VALID,0,VALID,92.9632,VALID,-0.0509425,VALID,19.0525,VALID,104,VALID,1.27773,
2001-07-10, 00:42:00,VALID,918.16,VALID,0,VALID,92.8945,VALID,-0.0679233,VALID,19.0493,VALID,106,VALID,1.17388,
2001-07-10, 00:43:00,VALID,918.154,VALID,0,VALID,92.9657,VALID,-0.0339617,VALID,19.0692,VALID,121,VALID,1.12993,
2001-07-10, 00:44:00,VALID,918.143,VALID,0,VALID,92.8131,VALID,-0.0339617,VALID,19.0687,VALID,113,VALID,1.13477,
2001-07-10, 00:45:00,VALID,918.128,VALID,0,VALID,92.8538,VALID,-0.0509425,VALID,19.0758,VALID,120,VALID,1.03242,
2001-07-10, 00:46:00,VALID,918.117,VALID,0,VALID,92.9772,VALID,-0.0509425,VALID,19.0657,VALID,122,VALID,1.26022,
2001-07-10, 00:47:00,VALID,918.106,VALID,0,VALID,92.8805,VALID,-0.0169808,VALID,19.0853,VALID,126,VALID,1.13302,
2001-07-10, 00:48:00,VALID,918.085,VALID,0,VALID,92.8577,VALID,-0.0509425,VALID,19.092,VALID,129,VALID,0.758984,
2001-07-10, 00:49:00,VALID,918.084,VALID,0,VALID,93.0878,VALID,-0.0679233,VALID,19.1141,VALID,134,VALID,0.826172,
2001-07-10, 00:50:00,VALID,918.077,VALID,0,VALID,93.0052,VALID,-0.0849042,VALID,19.1497,VALID,133,VALID,0.652845,
2001-07-10, 00:51:00,VALID,918.079,VALID,0,VALID,92.925,VALID,-0.0679233,VALID,19.1757,VALID,120,VALID,0.735609,
2001-07-10, 00:52:00,VALID,918.069,VALID,0,VALID,92.8055,VALID,-0.0509425,VALID,19.2083,VALID,136,VALID,0.842188,
2001-07-10, 00:53:00,VALID,918.069,VALID,0,VALID,92.8042,VALID,-0.0679233,VALID,19.2371,VALID,125,VALID,0.594336,
2001-07-10, 00:54:00,VALID,918.069,VALID,0,VALID,92.8653,VALID,-0.0849042,VALID,19.2701,VALID,126,VALID,0.660857,
2001-07-10, 00:55:00,VALID,918.073,VALID,0,VALID,93.0039,VALID,-0.0509425,VALID,19.3153,VALID,114,VALID,0.751645,
2001-07-10, 00:56:00,VALID,918.079,VALID,0,VALID,92.7775,VALID,-0.0339617,VALID,19.3337,VALID,117,VALID,0.875586,
2001-07-10, 00:57:00,VALID,918.048,VALID,0,VALID,92.6784,VALID,-0.0169808,VALID,19.373,VALID,118,VALID,0.907617,
2001-07-10, 00:58:00,VALID,918.046,VALID,0,VALID,92.405,VALID,0.0339617,VALID,19.4013,VALID,125,VALID,0.603365,
2001-07-10, 00:59:00,VALID,918.028,VALID,0,VALID,92.1812,VALID,0,VALID,19.3874,VALID,122,VALID,0.518709,
2001-07-10, 01:00:00,VALID,918.005,VALID,0,VALID,91.9866,VALID,0.0169808,VALID,19.3586,VALID,122,VALID,0.519737,
2001-07-10, 01:01:00,VALID,917.975,VALID,0,VALID,92.0515,VALID,0.0169808,VALID,19.3231,VALID,118,VALID,0.7,
2001-07-10, 01:02:00,VALID,917.969,VALID,0,VALID,92.3287,VALID,0.0339617,VALID,19.2649,VALID,116,VALID,0.969351,
2001-07-10, 01:03:00,VALID,917.959,VALID,0,VALID,92.6186,VALID,0.0339617,VALID,19.2133,VALID,120,VALID,0.947985,
2001-07-10, 01:04:00,VALID,917.939,VALID,0,VALID,92.9225,VALID,0,VALID,19.1685,VALID,117,VALID,1.00586,
2001-07-10, 01:05:00,VALID,917.931,VALID,0,VALID,93.1476,VALID,0.0849042,VALID,19.1524,VALID,107,VALID,1.02637,
2001-07-10, 01:06:00,VALID,917.923,VALID,0,VALID,92.981,VALID,0.0679233,VALID,19.0998,VALID,93,VALID,0.740585,
2001-07-10, 01:07:00,VALID,917.918,VALID,0,VALID,92.5461,VALID,0.0509425,VALID,19.0292,VALID,83,VALID,0.72903,
2001-07-10, 01:08:00,VALID,917.914,VALID,0,VALID,93.2747,VALID,0.0509425,VALID,18.9582,VALID,81,VALID,0.909766,
2001-07-10, 01:09:00,VALID,917.902,VALID,0,VALID,93.7262,VALID,0.0679233,VALID,18.9321,VALID,79,VALID,0.895117,
2001-07-10, 01:10:00,VALID,917.903,VALID,0,VALID,94.2488,VALID,0.0169808,VALID,18.9266,VALID,90,VALID,0.947516,
2001-07-10, 01:11:00,VALID,917.891,VALID,0,VALID,94.4001,VALID,0.0339617,VALID,18.9522,VALID,92,VALID,1.08573,
2001-07-10, 01:12:00,VALID,917.876,VALID,0,VALID,94.1598,VALID,0.0509425,VALID,19.0031,VALID,95,VALID,1.08652,
2001-07-10, 01:13:00,VALID,917.865,VALID,0,VALID,94.0034,VALID,0,VALID,19.0883,VALID,98,VALID,1.25527,
2001-07-10, 01:14:00,VALID,917.861,VALID,0,VALID,93.2989,VALID,0.101885,VALID,19.1941,VALID,106,VALID,1.16366,
2001-07-10, 01:15:00,VALID,917.867,VALID,0,VALID,92.6885,VALID,0.0339617,VALID,19.2876,VALID,106,VALID,1.00473,
2001-07-10, 01:16:00,VALID,917.86,VALID,0,VALID,92.3147,VALID,0.0679233,VALID,19.3427,VALID,102,VALID,1.07031,
2001-07-10, 01:17:00,VALID,917.849,VALID,0,VALID,92.4431,VALID,0.0849042,VALID,19.3755,VALID,105,VALID,1.14883,
2001-07-10, 01:18:00,VALID,917.85,VALID,0,VALID,92.5665,VALID,0.0339617,VALID,19.417,VALID,116,VALID,1.55609,
2001-07-10, 01:19:00,VALID,917.841,VALID,0,VALID,92.377,VALID,0.0679233,VALID,19.4237,VALID,119,VALID,1.49157,
2001-07-10, 01:20:00,VALID,917.831,VALID,0,VALID,92.2346,VALID,0.0509425,VALID,19.4003,VALID,114,VALID,1.05918,
2001-07-10, 01:21:00,VALID,917.809,VALID,0,VALID,92.1354,VALID,0.0679233,VALID,19.3559,VALID,111,VALID,1.20566,
2001-07-10, 01:22:00,VALID,917.803,VALID,0,VALID,92.541,VALID,0.0169808,VALID,19.3139,VALID,115,VALID,1.18169,
2001-07-10, 01:23:00,VALID,917.821,VALID,0,VALID,92.5614,VALID,0.0339617,VALID,19.2945,VALID,117,VALID,1.06106,
2001-07-10, 01:24:00,VALID,917.794,VALID,0,VALID,92.5003,VALID,0.0339617,VALID,19.2687,VALID,119,VALID,1.56152,
2001-07-10, 01:25:00,VALID,917.768,VALID,0,VALID,92.3287,VALID,0.0169808,VALID,19.2684,VALID,117,VALID,1.43145,
2001-07-10, 01:26:00,VALID,917.758,VALID,0,VALID,91.9777,VALID,0.0339617,VALID,19.2913,VALID,120,VALID,1.11138,
2001-07-10, 01:27:00,VALID,917.736,VALID,0,VALID,91.8722,VALID,0.0339617,VALID,19.3238,VALID,121,VALID,1.43483,
2001-07-10, 01:28:00,VALID,917.715,VALID,0,VALID,91.5797,VALID,0.101885,VALID,19.3551,VALID,117,VALID,1.14199,
2001-07-10, 01:29:00,VALID,917.681,VALID,0,VALID,91.4602,VALID,0.0339617,VALID,19.4011,VALID,124,VALID,1.33535,
2001-07-10, 01:30:00,VALID,917.681,VALID,0,VALID,91.4398,VALID,0.0339617,VALID,19.3976,VALID,116,VALID,1.16847,
2001-07-10, 01:31:00,VALID,917.674,VALID,0,VALID,91.4754,VALID,0.0509425,VALID,19.3752,VALID,115,VALID,1.23067,
2001-07-10, 01:32:00,VALID,917.675,VALID,0,VALID,91.3635,VALID,0.0169808,VALID,19.3819,VALID,104,VALID,1.3084,
2001-07-10, 01:33:00,VALID,917.667,VALID,0,VALID,90.6997,VALID,0.0339617,VALID,19.4398,VALID,82,VALID,0.765039,
2001-07-10, 01:34:00,VALID,917.658,VALID,0,VALID,90.4378,VALID,0.0169808,VALID,19.491,VALID,97,VALID,0.479968,
2001-07-10, 01:35:00,VALID,917.656,VALID,0,VALID,90.4162,VALID,0.0679233,VALID,19.5169,VALID,120,VALID,1.05757,
2001-07-10, 01:36:00,VALID,917.642,VALID,0,VALID,90.3043,VALID,0.0339617,VALID,19.533,VALID,117,VALID,1.05938,
2001-07-10, 01:37:00,VALID,917.635,VALID,0,VALID,90.2483,VALID,0.0679233,VALID,19.5362,VALID,116,VALID,1.06191,
2001-07-10, 01:38:00,VALID,917.619,VALID,0,VALID,90.1301,VALID,0.0509425,VALID,19.5432,VALID,121,VALID,1.20833,
2001-07-10, 01:39:00,VALID,917.592,VALID,0,VALID,89.8999,VALID,0.0509425,VALID,19.5069,VALID,120,VALID,0.988898,
2001-07-10, 01:40:00,VALID,917.56,VALID,0,VALID,90.4365,VALID,0.0849042,VALID,19.4364,VALID,118,VALID,1.3084,
2001-07-10, 01:41:00,VALID,917.545,VALID,0,VALID,90.8155,VALID,0.0849042,VALID,19.3782,VALID,116,VALID,1.26016,
2001-07-10, 01:42:00,VALID,917.546,VALID,0,VALID,90.9439,VALID,0.0849042,VALID,19.3387,VALID,106,VALID,1.16827,
2001-07-10, 01:43:00,VALID,917.541,VALID,0,VALID,90.7824,VALID,0.0849042,VALID,19.342,VALID,103,VALID,1.2574,
2001-07-10, 01:44:00,VALID,917.534,VALID,0,VALID,90.6679,VALID,0.101885,VALID,19.3482,VALID,107,VALID,0.950391,
2001-07-10, 01:45:00,VALID,917.518,VALID,0,VALID,91.1473,VALID,0.0679233,VALID,19.3035,VALID,117,VALID,0.878516,
2001-07-10, 01:46:00,VALID,917.504,VALID,0,VALID,91.9548,VALID,0.0679233,VALID,19.2264,VALID,101,VALID,1.09575,
2001-07-10, 01:47:00,VALID,917.507,VALID,0,VALID,92.3096,VALID,0.101885,VALID,19.1358,VALID,105,VALID,1.34005,
2001-07-10, 01:48:00,VALID,917.495,VALID,0,VALID,92.5359,VALID,0.0339617,VALID,19.094,VALID,103,VALID,1.11934,
2001-07-10, 01:49:00,VALID,917.499,VALID,0,VALID,92.7101,VALID,0.0339617,VALID,19.0421,VALID,99,VALID,1.06895,
2001-07-10, 01:50:00,VALID,917.507,VALID,0,VALID,93.0293,VALID,0.0169808,VALID,18.9875,VALID,100,VALID,1.02083,
2001-07-10, 01:51:00,VALID,917.51,VALID,0,VALID,93.496,VALID,0.0849042,VALID,18.9289,VALID,95,VALID,1.15831,
2001-07-10, 01:52:00,VALID,917.52,VALID,0,VALID,93.2964,VALID,0.0339617,VALID,18.8744,VALID,74,VALID,0.8375,
2001-07-10, 01:53:00,VALID,917.531,VALID,0,VALID,93.6168,VALID,0.0509425,VALID,18.8064,VALID,68,VALID,1.05391,
2001-07-10, 01:54:00,VALID,917.555,VALID,0,VALID,93.6766,VALID,0.0849042,VALID,18.7875,VALID,65,VALID,1.02925,
2001-07-10, 01:55:00,VALID,917.564,VALID,0,VALID,93.7096,VALID,0.0509425,VALID,18.7416,VALID,63,VALID,1.15008,
2001-07-10, 01:56:00,VALID,917.573,VALID,0,VALID,94.0301,VALID,0.0339617,VALID,18.7259,VALID,64,VALID,1.09863,
2001-07-10, 01:57:00,VALID,917.57,VALID,0,VALID,94.3416,VALID,0.0509425,VALID,18.6966,VALID,68,VALID,1.04941,
2001-07-10, 01:58:00,VALID,917.552,VALID,0,VALID,94.5705,VALID,0.0679233,VALID,18.6901,VALID,81,VALID,1.14563,
2001-07-10, 01:59:00,VALID,917.555,VALID,0,VALID,94.6036,VALID,0.0509425,VALID,18.674,VALID,88,VALID,0.900699,
2001-07-10, 02:00:00,VALID,917.547,VALID,0,VALID,94.6417,VALID,0.0509425,VALID,18.6777,VALID,94,VALID,0.981055,
2001-07-10, 02:01:00,VALID,917.541,VALID,0,VALID,94.5107,VALID,0.0849042,VALID,18.6998,VALID,95,VALID,1.05273,
2001-07-10, 02:02:00,VALID,917.538,VALID,0,VALID,94.2094,VALID,0.0679233,VALID,18.7323,VALID,100,VALID,1.23578,
2001-07-10, 02:03:00,VALID,917.536,VALID,0,VALID,93.777,VALID,0.0509425,VALID,18.7808,VALID,100,VALID,1.17825,
2001-07-10, 02:04:00,VALID,917.538,VALID,0,VALID,93.2913,VALID,0.0509425,VALID,18.8583,VALID,99,VALID,1.20918,
2001-07-10, 02:05:00,VALID,917.515,VALID,0,VALID,92.8297,VALID,0.0679233,VALID,18.9159,VALID,99,VALID,1.14082,
2001-07-10, 02:06:00,VALID,917.508,VALID,0,VALID,92.3821,VALID,0.0509425,VALID,18.9713,VALID,102,VALID,1.01522,
2001-07-10, 02:07:00,VALID,917.484,VALID,0,VALID,92.2346,VALID,0.0849042,VALID,18.9969,VALID,101,VALID,0.829359,
2001-07-10, 02:08:00,VALID,917.466,VALID,0,VALID,92.1964,VALID,0.101885,VALID,18.9937,VALID,100,VALID,0.81875,
2001-07-10, 02:09:00,VALID,917.459,VALID,0,VALID,92.288,VALID,0.0849042,VALID,18.9678,VALID,108,VALID,0.810352,
2001-07-10, 02:10:00,VALID,917.452,VALID,0,VALID,92.3999,VALID,0.101885,VALID,18.9385,VALID,116,VALID,0.85597,
2001-07-10, 02:11:00,VALID,917.43,VALID,0,VALID,92.4851,VALID,0.0849042,VALID,18.906,VALID,112,VALID,0.917558,
2001-07-10, 02:12:00,VALID,917.408,VALID,0,VALID,92.7051,VALID,0.0339617,VALID,18.8814,VALID,114,VALID,0.984766,
2001-07-10, 02:13:00,VALID,917.385,VALID,0,VALID,92.7381,VALID,0,VALID,18.8329,VALID,103,VALID,0.991797,
2001-07-10, 02:14:00,VALID,917.352,VALID,0,VALID,92.5855,VALID,-0.0339617,VALID,18.8073,VALID,102,VALID,0.788662,
2001-07-10, 02:15:00,VALID,917.359,VALID,0,VALID,92.6669,VALID,-0.0169808,VALID,18.7723,VALID,108,VALID,0.768298,
2001-07-10, 02:16:00,VALID,917.328,VALID,0,VALID,93.0128,VALID,-0.0339617,VALID,18.7241,VALID,109,VALID,0.84668,
2001-07-10, 02:17:00,VALID,917.332,VALID,0,VALID,93.0255,VALID,0,VALID,18.6853,VALID,106,VALID,0.661328,
2001-07-10, 02:18:00,VALID,917.331,VALID,0,VALID,93.0204,VALID,-0.0169808,VALID,18.6401,VALID,105,VALID,0.789463,
2001-07-10, 02:19:00,VALID,917.331,VALID,0,VALID,92.8246,VALID,0.0509425,VALID,18.5903,VALID,102,VALID,0.792969,
2001-07-10, 02:20:00,VALID,917.329,VALID,0,VALID,92.6606,VALID,0.0849042,VALID,18.5739,VALID,124,VALID,0.87168,
2001-07-10, 02:21:00,VALID,917.301,VALID,0,VALID,92.6135,VALID,0.0339617,VALID,18.5513,VALID,116,VALID,0.878516,
2001-07-10, 02:22:00,VALID,917.271,VALID,0,VALID,92.5868,VALID,0.0509425,VALID,18.5289,VALID,119,VALID,0.942308,
2001-07-10, 02:23:00,VALID,917.247,VALID,0,VALID,92.5385,VALID,0.0509425,VALID,18.5068,VALID,120,VALID,1.01336,
2001-07-10, 02:24:00,VALID,917.229,VALID,0,VALID,92.2892,VALID,0.0849042,VALID,18.4738,VALID,118,VALID,0.918164,
2001-07-10, 02:25:00,VALID,917.214,VALID,0,VALID,91.7742,VALID,0.0339617,VALID,18.4221,VALID,82,VALID,1.04121,
2001-07-10, 02:26:00,VALID,917.201,VALID,0,VALID,92.204,VALID,0.0509425,VALID,18.3479,VALID,72,VALID,1.42047,
2001-07-10, 02:27:00,VALID,917.183,VALID,0,VALID,92.2498,VALID,0.0339617,VALID,18.284,VALID,66,VALID,1.67044,
2001-07-10, 02:28:00,VALID,917.168,VALID,0,VALID,93.0853,VALID,0,VALID,18.2236,VALID,66,VALID,1.80488,
2001-07-10, 02:29:00,VALID,917.152,VALID,0,VALID,93.4019,VALID,-0.0339617,VALID,18.1687,VALID,63,VALID,1.58848,
2001-07-10, 02:30:00,VALID,917.143,VALID,0,VALID,94.0123,VALID,-0.0169808,VALID,18.1394,VALID,67,VALID,1.45152,
2001-07-10, 02:31:00,VALID,917.143,VALID,0,VALID,94.2615,VALID,-0.0339617,VALID,18.1202,VALID,76,VALID,1.39165,
2001-07-10, 02:32:00,VALID,917.137,VALID,0,VALID,94.4726,VALID,-0.0169808,VALID,18.1108,VALID,83,VALID,1.12168,
2001-07-10, 02:33:00,VALID,917.151,VALID,0,VALID,94.5336,VALID,-0.0339617,VALID,18.0976,VALID,97,VALID,0.956055,
2001-07-10, 02:34:00,VALID,917.142,VALID,0,VALID,94.4408,VALID,0,VALID,18.085,VALID,105,VALID,1.07732,
2001-07-10, 02:35:00,VALID,917.128,VALID,0,VALID,94.4179,VALID,-0.0339617,VALID,18.0852,VALID,103,VALID,1.03166,
2001-07-10, 02:36:00,VALID,917.12,VALID,0,VALID,94.3632,VALID,-0.0169808,VALID,18.0787,VALID,89,VALID,0.674219,
2001-07-10, 02:37:00,VALID,917.102,VALID,0,VALID,94.161,VALID,-0.0169808,VALID,18.0524,VALID,99,VALID,0.629883,
2001-07-10, 02:38:00,VALID,917.094,VALID,0,VALID,94.3581,VALID,-0.0169808,VALID,18.037,VALID,120,VALID,0.739183,
2001-07-10, 02:39:00,VALID,917.066,VALID,0,VALID,94.3429,VALID,-0.0169808,VALID,18.0271,VALID,133,VALID,0.870683,
2001-07-10, 02:40:00,VALID,917.052,VALID,0,VALID,93.8533,VALID,-0.0339617,VALID,18.0206,VALID,72,VALID,0.766797,
2001-07-10, 02:41:00,VALID,917.044,VALID,0,VALID,94.0313,VALID,-0.0339617,VALID,17.9726,VALID,78,VALID,0.829492,
2001-07-10, 02:42:00,VALID,917.022,VALID,0,VALID,94.5095,VALID,-0.0169808,VALID,17.9623,VALID,95,VALID,0.936899,
2001-07-10, 02:43:00,VALID,917.009,VALID,0,VALID,94.7574,VALID,-0.0169808,VALID,17.9885,VALID,108,VALID,0.911184,
2001-07-10, 02:44:00,VALID,916.996,VALID,0,VALID,94.6557,VALID,-0.0169808,VALID,18.0047,VALID,117,VALID,0.9,
2001-07-10, 02:45:00,VALID,916.977,VALID,0,VALID,94.4116,VALID,-0.0169808,VALID,18.0077,VALID,115,VALID,0.677539,
2001-07-10, 02:46:00,VALID,916.97,VALID,0,VALID,94.3175,VALID,-0.0169808,VALID,18.0047,VALID,108,VALID,0.67488,
2001-07-10, 02:47:00,VALID,916.954,VALID,0,VALID,94.011,VALID,-0.0339617,VALID,17.9821,VALID,100,VALID,0.481497,
2001-07-10, 02:48:00,VALID,916.961,VALID,0,VALID,93.2239,VALID,-0.0169808,VALID,17.8848,VALID,87,VALID,0.299414,
2001-07-10, 02:49:00,VALID,916.96,VALID,0,VALID,92.2447,VALID,-0.0509425,VALID,17.7559,VALID,64,VALID,0.438086,
2001-07-10, 02:50:00,VALID,916.952,VALID,0,VALID,92.9225,VALID,-0.0679233,VALID,17.5914,VALID,58,VALID,0.567107,
2001-07-10, 02:51:00,VALID,916.938,VALID,0,VALID,94.1954,VALID,0,VALID,17.5299,VALID,77,VALID,0.786801,
2001-07-10, 02:52:00,VALID,916.924,VALID,0,VALID,95.0613,VALID,-0.0169808,VALID,17.5435,VALID,79,VALID,0.773438,
2001-07-10, 02:53:00,VALID,916.922,VALID,0,VALID,95.8345,VALID,-0.0339617,VALID,17.5755,VALID,81,VALID,0.876758,
2001-07-10, 02:54:00,VALID,916.919,VALID,0,VALID,95.5369,VALID,-0.0169808,VALID,17.6175,VALID,77,VALID,0.639223,
2001-07-10, 02:55:00,VALID,916.92,VALID,0,VALID,94.4484,VALID,-0.0509425,VALID,17.5628,VALID,63,VALID,0.498972,
2001-07-10, 02:56:00,VALID,916.932,VALID,0,VALID,94.0415,VALID,-0.0679233,VALID,17.4496,VALID,58,VALID,0.349609,
2001-07-10, 02:57:00,VALID,916.93,VALID,0,VALID,94.7333,VALID,-0.0679233,VALID,17.382,VALID,58,VALID,0.276758,
2001-07-10, 02:58:00,VALID,916.911,VALID,0,VALID,95.4708,VALID,-0.0679233,VALID,17.3917,VALID,58,VALID,0.40625,
2001-07-10, 02:59:00,VALID,916.911,VALID,0,VALID,95.9553,VALID,-0.101885,VALID,17.3917,VALID,76,VALID,0.645559,
2001-07-10, 03:00:00,VALID,916.885,VALID,0,VALID,96.8174,VALID,-0.0849042,VALID,17.4724,VALID,96,VALID,0.928125,
2001-07-10, 03:01:00,VALID,916.863,VALID,0,VALID,96.792,VALID,-0.0849042,VALID,17.6117,VALID,105,VALID,1.06016,
2001-07-10, 03:02:00,VALID,916.845,VALID,0,VALID,96.2134,VALID,-0.0509425,VALID,17.7339,VALID,118,VALID,1.02284,
2001-07-10, 03:03:00,VALID,916.84,VALID,0,VALID,95.5967,VALID,-0.0849042,VALID,17.828,VALID,146,VALID,0.311472,
2001-07-10, 03:04:00,VALID,916.855,VALID,0,VALID,94.5133,VALID,-0.0679233,VALID,17.84,VALID,242,VALID,0.493555,
2001-07-10, 03:05:00,VALID,916.873,VALID,0,VALID,93.9614,VALID,-0.0679233,VALID,17.8306,VALID,290,VALID,0.801367,
2001-07-10, 03:06:00,VALID,916.902,VALID,0,VALID,94.9011,VALID,-0.101885,VALID,17.9825,VALID,305,VALID,0.890825,
2001-07-10, 03:07:00,VALID,916.926,VALID,0,VALID,93.8673,VALID,-0.0679233,VALID,18.0536,VALID,359,VALID,0.332854,
2001-07-10, 03:08:00,VALID,916.925,VALID,0,VALID,92.8678,VALID,-0.0509425,VALID,17.9666,VALID,49,VALID,0.598242,
2001-07-10, 03:09:00,VALID,916.924,VALID,0,VALID,94.334,VALID,-0.101885,VALID,17.9832,VALID,85,VALID,0.750586,
2001-07-10, 03:10:00,VALID,916.899,VALID,0,VALID,93.8978,VALID,-0.118866,VALID,18.051,VALID,116,VALID,1.04768,
2001-07-10, 03:11:00,VALID,916.899,VALID,0,VALID,93.7847,VALID,-0.101885,VALID,18.0799,VALID,133,VALID,0.70148,
2001-07-10, 03:12:00,VALID,916.883,VALID,0,VALID,93.0026,VALID,-0.0849042,VALID,18.1216,VALID,202,VALID,0.46543,
2001-07-10, 03:13:00,VALID,916.896,VALID,0,VALID,92.6516,VALID,-0.0849042,VALID,18.0665,VALID,248,VALID,0.784375,
2001-07-10, 03:14:00,VALID,916.885,VALID,0,VALID,93.3752,VALID,-0.0849042,VALID,18.1318,VALID,260,VALID,0.615385,
2001-07-10, 03:15:00,VALID,916.887,VALID,0,VALID,93.4197,VALID,-0.0849042,VALID,18.1931,VALID,278,VALID,0.405633,
2001-07-10, 03:16:00,VALID,916.886,VALID,0,VALID,93.5087,VALID,-0.0849042,VALID,18.2501,VALID,209,VALID,0.641602,
2001-07-10, 03:17:00,VALID,916.877,VALID,0,VALID,93.1781,VALID,-0.101885,VALID,18.3091,VALID,177,VALID,0.698047,
2001-07-10, 03:18:00,VALID,916.867,VALID,0,VALID,92.6351,VALID,-0.0679233,VALID,18.3253,VALID,150,VALID,0.856971,
2001-07-10, 03:19:00,VALID,916.854,VALID,0,VALID,92.3503,VALID,-0.0849042,VALID,18.3059,VALID,125,VALID,0.861225,
2001-07-10, 03:20:00,VALID,916.849,VALID,0,VALID,90.097,VALID,-0.101885,VALID,18.2577,VALID,64,VALID,0.727734,
2001-07-10, 03:21:00,VALID,916.833,VALID,0,VALID,89.1598,VALID,-0.118866,VALID,17.9862,VALID,59,VALID,1.05313,
2001-07-10, 03:22:00,VALID,916.837,VALID,0,VALID,93.6766,VALID,-0.101885,VALID,17.9574,VALID,73,VALID,1.34175,
2001-07-10, 03:23:00,VALID,916.849,VALID,0,VALID,93.6092,VALID,-0.101885,VALID,18.1285,VALID,89,VALID,1.29893,
2001-07-10, 03:24:00,VALID,916.846,VALID,0,VALID,91.6865,VALID,-0.101885,VALID,18.3285,VALID,68,VALID,1.06973,
2001-07-10, 03:25:00,VALID,916.853,VALID,0,VALID,91.0151,VALID,-0.101885,VALID,18.3513,VALID,55,VALID,1.3416,
2001-07-10, 03:26:00,VALID,916.856,VALID,0,VALID,91.9141,VALID,-0.101885,VALID,18.3052,VALID,51,VALID,1.24419,
2001-07-10, 03:27:00,VALID,916.856,VALID,0,VALID,91.8162,VALID,-0.0679233,VALID,18.361,VALID,56,VALID,0.878495,
2001-07-10, 03:28:00,VALID,916.845,VALID,0,VALID,92.1061,VALID,-0.0679233,VALID,18.3539,VALID,87,VALID,0.731445,
2001-07-10, 03:29:00,VALID,916.842,VALID,0,VALID,91.8963,VALID,-0.0679233,VALID,18.3347,VALID,109,VALID,1.12598,
2001-07-10, 03:30:00,VALID,916.847,VALID,0,VALID,91.5148,VALID,-0.0169808,VALID,18.2701,VALID,118,VALID,1.27724,